sat.trackr.live / text

‹ back to catalog

STARLINK-37266

NORAD 68780 · 2026-086Q

PAYLOAD ACTIVE UNKNOWN

§ Identity

Operator
Country
US
Launch date
2026-04-19
Launch site
AFWTR
Launch vehicle
Mass (kg)
RCS (m²)

Purposes: comms

External: N2YO · Heavens-Above · Gunter

§ Orbital elements

Epoch: 2026-09-19T08:58:31.027008Z

Period
93.91 min
Inclination
97.2853°
Eccentricity
0.0002975
Mean motion
15.33456227 rev/d
Perigee alt
463.5 km
Apogee alt
467.5 km
Semi-major
6,843.6 km
B*
4.0268e-4
RAAN
297.8370°
Arg perigee
93.5103°
Mean anomaly
266.6480°
Rev number
2,351

§ Raw data

STARLINK-372661 68780U 26086Q   26262.37397022  .00012953  00000+0  40268-3 0  99942 68780  97.2853 297.8370 0002975  93.5103 266.6480 15.33456227 23516

JSON: /api/v1/satellites/68780 · /tle

For live sub-satellite position, see the globe view (requires WebGL).

§ Visibility from observer

Set your observer location to see the next 7 days of passes ≥ 10°. The values pass through the URL so the page stays shareable.

No JS? Fill the form by hand. The geolocation button needs JavaScript.